STARLINK-35937

Last updated on Fri Dec 19 2025 00:02:05 GMT+0000 (Coordinated Universal Time)

1 66517U 25265B 25352.66667824 .00031285 00000+0 75302-3 0 9995 2 66517 43.0003 19.5173 0001823 283.8042 153.4510 15.40703700 5948
UTC large
Height (km)
Speed (km/s)
/
Latitude / Longitude
Inclination (degrees)
Orbital Period (minutes)
Azimuth
Elevation
Range (km)
Doppler Factor

Next 0 passes for location: London (51.5072 / 0.1276)

Sorry there are no passes over London.